Location: Ch?enovice
(49.7164°N, 15.2160°E)
Time: 19:35:55
(UTC+00:00)

COBE Rocket - Pass Details

Date: 23 May 2024
Orbit: 678 x 776 km, 97.1° (Epoch: 20 June)

Event Time Altitude Azimuth Distance (km) Brightness Sun altitude
Rises 00:38:03 0° 14° (NNE) 3,126 8.8 -16.1°
Reaches altitude 10° 00:40:19 10° 17° (NNE) 2,217 7.7 -15.9°
Maximum altitude 00:45:12 70° 101° (E) 785 4.1 -15.6°
Enters shadow 00:48:29 21° 181° (S) 1,614 5.2 -15.3°
